Overview Statistics Trail Chart Weather Telemetry Raw packets
 

This is the latest recevied weather packets stored in our database for station/object KB3UMW-13. If no packets are shown the sender has not sent any weather packets the latest 10 day(s).

<< 1 2 3 4 >>
Time Temp. Humidity Pressure Rain* Wind** Luminosity Snow
1788618062 17.78° C 99% 1018.1 hPa 1.78 mm - 45 W/m² -
1788617762 17.78° C 99% 1018.1 hPa 0 mm - 20 W/m² -
1788617459 18.33° C 99% 1018 hPa 0 mm - 31 W/m² -
1788617154 18.33° C 99% 1018.1 hPa 0 mm - 37 W/m² -
1788616853 18.33° C 99% 1017.8 hPa 0 mm - 58 W/m² -
1788616548 18.33° C 99% 1018 hPa 0.51 mm - 34 W/m² -
1788616248 18.33° C 99% 1017.9 hPa 2.29 mm - 25 W/m² -
1788615942 18.89° C 99% 1017.8 hPa 2.29 mm - 13 W/m² -
1788615668 19.44° C 99% 1017.7 hPa 0 mm - 2 W/m² -
1788615336 19.44° C 99% 1017.5 hPa 0 mm - 7 W/m² -
1788615031 19.44° C 99% 1017.4 hPa 0 mm - 11 W/m² -
1788614730 19.44° C 99% 1017.5 hPa 0 mm - 16 W/m² -
1788614425 19.44° C 99% 1017.5 hPa 0 mm - 17 W/m² -
1788614121 19.44° C 99% 1017.3 hPa 0 mm - 15 W/m² -
1788613816 19.44° C 99% 1017.3 hPa 0 mm - 12 W/m² -
1788613515 19.44° C 99% 1017.2 hPa 0 mm - 12 W/m² -
1788613210 19.44° C 99% 1017.2 hPa 0 mm - 11 W/m² -
1788612899 19.44° C 99% 1017.1 hPa 0 mm - 24 W/m² -
1788612595 19.44° C 99% 1016.7 hPa 0 mm - 30 W/m² -
1788612291 19.44° C 99% 1016.7 hPa 0 mm - 32 W/m² -
1788611987 19.44° C 99% 1016.7 hPa 0 mm - 24 W/m² -
1788611683 19.44° C 99% 1017.2 hPa 0 mm - 19 W/m² -
1788611383 19.44° C 99% 1016.9 hPa 0 mm - 24 W/m² -
1788611082 19.44° C 99% 1017.3 hPa 0 mm - 33 W/m² -
1788610778 20° C 99% 1017 hPa 0 mm - 35 W/m² -

* Rain latest hour (hover to see other rain measurements)
** Current wind speed in m/s (hover to see current wind gust speed)